Вернуться в каталог

SL-12 DEB

АктивенHEO
NORAD 29328·DEBRIS·🇷🇺 Russia

Запущен May 31, 1989 с Baikonur Cosmodrome

Loading…

Ближайшие Пролёты (ближайшие 24 часа)

TLE

СвежийSource: Space-Track

Эпоха: Sep 13, 2026, 22:24 UTC

1 29328U 89039AK  26256.93386927  .00000277  00000-0  52306-2 0  9995
2 29328  65.2846 165.3258 5450165  91.7543 356.6117  4.29098963314762

Отслеживайте SL-12 DEB в реальном времени с AllMySat

Download on the App Store